Location: Missoula
(46.8720°N, 113.9930°W)
Time: 14:40:41
(UTC-06:00)

ISS - Visible Passes

Search period start: 19 September 2018 00:00
Search period end: 29 September 2018 00:00
Orbit: 402 x 408 km, 51.6° (Epoch: 20 September)

Date Brightness Start Highest point End Pass type
(mag) Time Alt. Az. Time Alt. Az. Time Alt. Az.
21 Sep -2.1 20:59:37 10° SSW 21:01:20 20° SSE 21:01:20 20° SSE visible
22 Sep -1.8 20:08:50 10° SSE 20:10:27 13° SE 20:12:04 10° ESE visible
22 Sep -2.1 21:43:11 10° WSW 21:44:50 27° SW 21:44:50 27° SW visible
23 Sep -3.5 20:51:22 10° SW 20:54:31 45° SE 20:55:23 35° ESE visible
23 Sep -0.5 22:27:50 10° W 22:28:05 12° W 22:28:05 12° W visible
24 Sep -2.6 19:59:47 10° SSW 20:02:37 27° SE 20:05:27 10° E visible
24 Sep -3.1 21:35:40 10° WSW 21:38:27 53° WNW 21:38:27 53° WNW visible
25 Sep -3.9 20:43:35 10° WSW 20:46:52 88° S 20:48:41 25° ENE visible
25 Sep -0.7 22:20:33 10° WNW 22:21:21 16° WNW 22:21:21 16° WNW visible
26 Sep -3.6 19:51:38 10° SW 19:54:52 55° SSE 19:58:05 10° ENE visible
26 Sep -2.8 21:28:18 10° W 21:31:27 42° NNW 21:31:28 42° NNW visible
27 Sep -3.2 20:36:03 10° W 20:39:18 54° NNW 20:41:29 19° NE visible
27 Sep -0.8 22:13:09 10° WNW 22:14:09 17° WNW 22:14:09 17° WNW visible
28 Sep -2.6 21:20:55 10° WNW 21:23:59 35° N 21:24:06 34° N visible
